Weather History for Tel Aviv, Israel

Change the Weather History Date:

Saturday, August 10, 2013

  Actual Average Record
Temperature  
Mean Temperature 83 °F -  
Max Temperature 90 °F 86 °F 94 °F (2012)
Min Temperature 76 °F 72 °F 69 °F (1998)
Cooling Degree Days 18    
Growing Degree Days 33 (Base 50)    
Moisture  
Dew Point 69 °F    
Average Humidity 65    
Maximum Humidity 78    
Minimum Humidity 39    
Precipitation  
Precipitation 0.00 in - - ()
Sea Level Pressure  
Sea Level Pressure 29.66 in    
Wind  
Wind Speed 6 mph ()    
Max Wind Speed 13 mph    
Max Gust Speed -    
Visibility 6.2 miles    
Events      
Averages and records for this station are not official NWS values.
T = Trace of Precipitation, MM = Missing Value Source: Averaged Metar Reports

Daily Weather History Graph

Daily Weather History Graph

Search for Another Location

Airport:

Trip Planner

Search our weather history database for the weather conditions in past years. The results will help you decide how hot, cold, wet, or windy it might be!

Date:

Astronomy

Aug. 10, 2013 Rise Set
Actual Time 6:01 AM IDT 7:29 PM IDT
Civil Twilight 5:35 AM IDT 7:55 PM IDT
Nautical Twilight 5:04 AM IDT 8:26 PM IDT
Astronomical Twilight 4:31 AM IDT 8:59 PM IDT
Moon 9:10 AM IDT (8/10) 9:17 PM IDT (8/10)
Length of Visible Light 14h 19m
Length of Day
13h 27m
Waxing Crescent, 12% of the Moon is Illuminated
Aug 10
Waxing Crescent
Aug 14
First Quarter
Aug 21
Full
Aug 28
Last Quarter
Sep 5
New

Hourly Weather History & Observations

Time (IDT) Temp. Heat Index Dew Point Humidity Pressure Visibility Wind Dir Wind Speed Gust Speed Precip Events Conditions
12:20 AM 78.8 °F - 69.8 °F 74% 29.68 in 6.2 mi South 4.6 mph - N/A   Partly Cloudy
12:50 AM 78.8 °F - 69.8 °F 74% 29.68 in 6.2 mi South 4.6 mph - N/A   Partly Cloudy
1:20 AM 78.8 °F - 69.8 °F 74% 29.68 in 6.2 mi South 4.6 mph - N/A   Partly Cloudy
1:50 AM 77.0 °F - 69.8 °F 78% 29.68 in 6.2 mi South 5.8 mph - N/A   Partly Cloudy
2:20 AM 77.0 °F - 69.8 °F 78% 29.68 in - South 5.8 mph - N/A   Clear
2:50 AM 77.0 °F - 69.8 °F 78% 29.68 in 6.2 mi SSE 5.8 mph - N/A   Partly Cloudy
3:00 AM 77 °F - 69 °F 71% 29.68 in 6 mi SSE 5.8 mph - -   Scattered Clouds
3:20 AM 77.0 °F - 69.8 °F 78% 29.68 in 6.2 mi SSE 5.8 mph - N/A   Scattered Clouds
3:50 AM 77.0 °F - 69.8 °F 78% 29.68 in 6.2 mi SSE 6.9 mph - N/A   Mostly Cloudy
4:20 AM 77.0 °F - 69.8 °F 78% 29.65 in 6.2 mi SSE 8.1 mph - N/A   Mostly Cloudy
4:50 AM 77.0 °F - 69.8 °F 78% 29.65 in 6.2 mi SSE 6.9 mph - N/A   Scattered Clouds
5:20 AM 77.0 °F - 69.8 °F 78% 29.68 in 6.2 mi SSE 4.6 mph - N/A   Scattered Clouds
5:50 AM 77.0 °F - 69.8 °F 78% 29.68 in 6.2 mi SSE 6.9 mph - N/A   Mostly Cloudy
6:20 AM 77.0 °F - 68.0 °F 74% 29.68 in 6.2 mi SSE 8.1 mph - N/A   Partly Cloudy
6:50 AM 77.0 °F - 68.0 °F 74% 29.68 in 6.2 mi SSE 8.1 mph - N/A   Partly Cloudy
7:20 AM 77.0 °F - 68.0 °F 74% 29.68 in 6.2 mi SSE 8.1 mph - N/A   Partly Cloudy
7:50 AM 78.8 °F - 69.8 °F 74% 29.68 in 6.2 mi South 6.9 mph - N/A   Partly Cloudy
8:20 AM 80.6 °F 83.9 °F 69.8 °F 70% 29.68 in 6.2 mi South 9.2 mph - N/A   Partly Cloudy
8:50 AM 80.6 °F 83.9 °F 69.8 °F 70% 29.68 in 6.2 mi South 8.1 mph - N/A   Scattered Clouds
9:00 AM 82 °F - 69 °F 58% 29.68 in 6 mi South 6.9 mph - -   Partly Cloudy
9:20 AM 82.4 °F 86.3 °F 69.8 °F 66% 29.68 in 6.2 mi SSW 5.8 mph - N/A   Mostly Cloudy
9:50 AM 82.4 °F 85.4 °F 68.0 °F 62% 29.68 in 6.2 mi SSW 6.9 mph - N/A   Scattered Clouds
10:20 AM 86.0 °F 89.4 °F 68.0 °F 55% 29.68 in 6.2 mi SSW 4.6 mph - N/A   Scattered Clouds
10:50 AM 86.0 °F 88.2 °F 66.2 °F 51% 29.65 in 6.2 mi West 8.1 mph - N/A   Partly Cloudy
11:20 AM 87.8 °F 90.4 °F 66.2 °F 49% 29.65 in 6.2 mi SW 4.6 mph - N/A   Partly Cloudy
11:50 AM 87.8 °F 91.4 °F 68.0 °F 52% 29.65 in 6.2 mi West 9.2 mph - N/A   Partly Cloudy
12:20 PM 87.8 °F 91.4 °F 68.0 °F 52% 29.65 in 6.2 mi West 9.2 mph - N/A   Partly Cloudy
12:50 PM 87.8 °F 91.4 °F 68.0 °F 52% 29.65 in 6.2 mi West 11.5 mph - N/A   Partly Cloudy
1:20 PM 87.8 °F 90.4 °F 66.2 °F 49% 29.65 in 6.2 mi West 9.2 mph - N/A   Partly Cloudy
1:50 PM 87.8 °F 90.4 °F 66.2 °F 49% 29.65 in 6.2 mi West 10.4 mph - N/A   Partly Cloudy
2:20 PM 87.8 °F 90.4 °F 66.2 °F 49% 29.65 in 6.2 mi West 11.5 mph - N/A   Partly Cloudy
2:50 PM 87.8 °F 90.4 °F 66.2 °F 49% 29.65 in - WNW 11.5 mph - N/A   Clear
3:00 PM 88 °F - 66 °F 39% 29.65 in 6 mi WNW 11.5 mph - -  
3:20 PM 87.8 °F 91.4 °F 68.0 °F 52% 29.65 in - West 11.5 mph - N/A   Clear
3:50 PM 87.8 °F 91.4 °F 68.0 °F 52% 29.62 in - West 12.7 mph - N/A   Clear
4:20 PM 86.0 °F 90.4 °F 69.8 °F 58% 29.62 in 6.2 mi West 12.7 mph - N/A   Partly Cloudy
4:50 PM 86.0 °F 89.4 °F 68.0 °F 55% 29.62 in 6.2 mi West 12.7 mph - N/A   Partly Cloudy
5:20 PM 86.0 °F 90.4 °F 69.8 °F 58% 29.62 in - WNW 12.7 mph - N/A   Clear
5:50 PM 86.0 °F 90.4 °F 69.8 °F 58% 29.62 in - WNW 10.4 mph - N/A   Clear
6:20 PM 86.0 °F 91.8 °F 71.6 °F 62% 29.65 in - WNW 8.1 mph - N/A   Clear
6:50 PM 84.2 °F 89.6 °F 71.6 °F 66% 29.65 in - WNW 8.1 mph - N/A   Clear
7:20 PM 82.4 °F 87.2 °F 71.6 °F 70% 29.65 in - WNW 8.1 mph - N/A   Clear
7:50 PM 82.4 °F 87.2 °F 71.6 °F 70% 29.65 in 6.2 mi West 6.9 mph - N/A   Partly Cloudy
8:20 PM 82.4 °F 87.2 °F 71.6 °F 70% 29.65 in 6.2 mi West 4.6 mph - N/A   Partly Cloudy
8:50 PM 82.4 °F 87.2 °F 71.6 °F 70% 29.68 in - Variable 3.5 mph - N/A   Clear
9:00 PM 82 °F - 71 °F 61% 29.68 in 6 mi 3.5 mph - -  
9:20 PM 80.6 °F 84.6 °F 71.6 °F 74% 29.68 in - Variable 2.3 mph - N/A   Clear
9:50 PM 80.6 °F 83.9 °F 69.8 °F 70% 29.68 in - Variable 2.3 mph - N/A   Clear
10:20 PM 80.6 °F 84.6 °F 71.6 °F 74% 29.68 in - Variable 2.3 mph - N/A   Clear
10:50 PM 80.6 °F 83.9 °F 69.8 °F 70% 29.68 in - Variable 2.3 mph - N/A   Clear
11:20 PM 80.6 °F 83.9 °F 69.8 °F 70% 29.68 in 6.2 mi SSW 4.6 mph - N/A   Partly Cloudy
11:50 PM 80.6 °F 84.6 °F 71.6 °F 74% 29.68 in 6.2 mi Variable 3.5 mph - N/A   Partly Cloudy